sat.trackr.live / text

‹ back to catalog

IRIDIUM 106

NORAD 41917 · 2017-003A

PAYLOAD ACTIVE UNKNOWN

§ Identity

Operator
Country
US
Launch date
2017-01-14
Launch site
AFWTR
Launch vehicle
Mass (kg)
RCS (m²)
2.80

Purposes: comms

External: N2YO · Heavens-Above · Gunter

§ Orbital elements

Epoch: 2026-09-09T22:24:57.941280Z

Period
100.40 min
Inclination
86.3932°
Eccentricity
0.0001903
Mean motion
14.34217024 rev/d
Perigee alt
776.3 km
Apogee alt
779.0 km
Semi-major
7,155.8 km
B*
-1.6300e-5
RAAN
53.0954°
Arg perigee
82.3452°
Mean anomaly
277.7959°
Rev number
50,535

§ Raw data

IRIDIUM 1061 41917U 17003A   26252.93400395 -.00000026  00000+0 -16300-4 0  99962 41917  86.3932  53.0954 0001903  82.3452 277.7959 14.34217024505350

JSON: /api/v1/satellites/41917 · /tle

For live sub-satellite position, see the globe view (requires WebGL).

§ Visibility from observer

Set your observer location to see the next 7 days of passes ≥ 10°. The values pass through the URL so the page stays shareable.

No JS? Fill the form by hand. The geolocation button needs JavaScript.